Location: Godiavel Galaoual
(15.2485°N, 12.6604°W)
Time: 02:20:29
(UTC+00:00)

YUBILEINY - Visible Passes

Search period start: 05 August 2021 00:00
Search period end: 15 August 2021 00:00
Orbit: 1478 x 1508 km, 82.5° (Epoch: 04 August)

Date Brightness Start Highest point End Pass type
(mag) Time Alt. Az. Time Alt. Az. Time Alt. Az.
05 Aug ? 03:51:57 10° SE 03:57:34 19° E 04:03:11 10° NE visible
05 Aug ? 05:45:06 10° SSW 05:53:40 57° W 06:02:18 10° N visible
06 Aug ? 04:55:27 10° S 05:04:12 72° E 05:12:58 10° N visible
07 Aug ? 04:07:15 10° SSE 04:14:54 34° E 04:22:31 10° NNE visible
07 Aug ? 06:03:41 10° SW 06:11:20 33° W 06:19:04 10° NNW visible
08 Aug ? 03:21:41 10° ESE 03:25:46 14° E 03:29:51 10° ENE visible
08 Aug ? 05:12:59 10° SSW 05:21:44 71° W 05:30:32 10° N visible
09 Aug ? 04:23:44 10° SSE 04:32:18 58° E 04:40:54 10° NNE visible
10 Aug ? 03:36:04 10° SE 03:43:03 27° E 03:50:02 10° NE visible
10 Aug ? 05:31:13 10° SSW 05:39:21 42° W 05:47:34 10° NNW visible
11 Aug ? 04:42:21 16° S 04:49:49 86° W 04:58:41 10° N visible
12 Aug ? 03:54:22 19° SSE 04:00:26 47° E 04:08:43 10° NNE visible
12 Aug ? 05:50:24 10° SW 05:57:05 24° W 06:03:50 10° NNW visible
13 Aug ? 03:06:17 13° SE 03:11:14 21° E 03:17:18 10° NE visible
13 Aug ? 05:02:16 26° SSW 05:07:23 52° W 05:15:57 10° N visible
14 Aug ? 04:14:05 39° S 04:17:54 78° E 04:26:43 10° N visible
14 Aug ? 06:11:43 10° W 06:14:57 12° WNW 06:18:11 10° WNW visible
